Terminal Aerodrome Forecast
Issued by NWS

Current Version | Previous Version | Graphics & Text | Print | Product List | Glossary On
Versions: 1 2 3 4 5 6 7 8 9 10 11 12 13 14 15 16 17
000
FTUS41 KPBZ 261100
TAFMGW
TAF
KMGW 261123Z 2612/2712 36005KT P6SM OVC080
     FM261700 02005KT 5SM -SHSN OVC020
     FM262100 34008KT P6SM OVC020=

USA.gov is the U.S. government's official web portal to all federal, state and local government web resources and services.